La Paz, Mexico

9:25 PM MST on March 26, 2017 (GMT -0700)
Gen Manuel Marquez De Leon

Weather History for MMLP - September, 2012

Change the Weather History Date:

Saturday, September 15, 2012

  Actual Average Record
Temperature  
Mean Temperature 86 °F -  
Max Temperature 94 °F 92 °F 102 °F (2010)
Min Temperature 77 °F 70 °F 69 °F (2008)
Cooling Degree Days 20    
Growing Degree Days 36 (Base 50)    
Moisture  
Dew Point 73 °F    
Average Humidity 68    
Maximum Humidity 89    
Minimum Humidity 40    
Precipitation  
Precipitation 0.12 in - - ()
Sea Level Pressure  
Sea Level Pressure 29.97 in    
Wind  
Wind Speed 3 mph ()    
Max Wind Speed 12 mph    
Max Gust Speed -    
Visibility 11.1 miles    
Events Rain , Thunderstorm    
Averages and records for this station are not official NWS values.
T = Trace of Precipitation, MM = Missing Value Source: Averaged Metar Reports

Daily Weather History Graph

Daily Weather History Graph

Search for Another Location

Airport or City:

Trip Planner

Search our weather history database for the weather conditions in past years. The results will help you decide how hot, cold, wet, or windy it might be!

Date:

Astronomy

Sep. 15, 2012 Rise Set
Actual Time 7:07 AM MDT 7:24 PM MDT
Civil Twilight 6:45 AM MDT 7:47 PM MDT
Nautical Twilight 6:18 AM MDT 8:13 PM MDT
Astronomical Twilight 5:52 AM MDT 8:40 PM MDT
Moon 6:39 AM MDT (9/15) 7:03 PM MDT (9/15)
Length of Visible Light 13h 01m
Length of Day
12h 16m
Waning Crescent, 0% of the Moon is Illuminated
Sep 15
Waning Crescent
Sep 15
New
Sep 22
First Quarter
Sep 29
Full
Oct 8
Last Quarter

Hourly Weather History & Observations

Time (MDT) Temp. Heat Index Dew Point Humidity Pressure Visibility Wind Dir Wind Speed Gust Speed Precip Events Conditions
12:00 AM 82 °F - 76 °F 76% 29.96 in 2 mi South 2.2 mph - -   Partly Cloudy
2:50 AM 81 °F - 75 °F 77% 29.95 in 2 mi Calm Calm - -   Partly Cloudy
5:40 AM 78.8 °F - 75.2 °F 89% 29.92 in 10.0 mi SW 3.5 mph - N/A   Overcast
5:50 AM 82 °F - 76 °F 77% 29.92 in 2 mi Calm Calm - -   Mostly Cloudy
6:45 AM 78.8 °F - 73.4 °F 83% 29.94 in 10.0 mi East 3.5 mph - N/A   Mostly Cloudy
7:41 AM 78.8 °F - 73.4 °F 83% 29.96 in 10.0 mi Calm Calm - N/A   Mostly Cloudy
8:42 AM 78.8 °F - 73.4 °F 83% 30.04 in 10.0 mi Calm Calm - N/A   Mostly Cloudy
8:50 AM 83 °F - 76 °F 73% 29.97 in 12 mi Calm Calm - -   Mostly Cloudy
9:51 AM 84.2 °F 89.6 °F 71.6 °F 66% 30.00 in 12.0 mi WSW 3.5 mph - N/A   Mostly Cloudy
10:46 AM 87.8 °F 90.4 °F 66.2 °F 49% 30.00 in 12.0 mi Calm Calm - N/A   Scattered Clouds
11:43 AM 89.6 °F 93.4 °F 68.0 °F 49% 30.04 in 15.0 mi NW 6.9 mph - N/A   Scattered Clouds
11:50 AM 92 °F - 71 °F 40% 29.99 in 19 mi WSW 6.7 mph - -   Scattered Clouds
12:43 PM 89.6 °F 93.4 °F 68.0 °F 49% 29.98 in 15.0 mi North 11.5 mph - N/A   Scattered Clouds
1:47 PM 89.6 °F 94.7 °F 69.8 °F 52% 29.95 in 15.0 mi North 9.2 mph - N/A   Scattered Clouds
2:41 PM 89.6 °F 94.7 °F 69.8 °F 52% 29.99 in 15.0 mi NNW 9.2 mph - N/A   Scattered Clouds
2:50 PM 94 °F - 74 °F 43% 29.94 in 19 mi NW 8.9 mph - -   Scattered Clouds
3:49 PM 86.0 °F 88.2 °F 66.2 °F 51% 29.94 in 13.0 mi ENE 6.9 mph - N/A   Mostly Cloudy
4:02 PM 82.4 °F 88.2 °F 73.4 °F 74% 29.95 in 13.0 mi NW 4.6 mph - N/A Thunderstorm Thunderstorm
4:40 PM 80.6 °F 83.9 °F 69.8 °F 70% 29.94 in 13.0 mi NNW 10.4 mph - N/A   Mostly Cloudy
5:47 PM 84.2 °F 90.9 °F 73.4 °F 70% 29.99 in 13.0 mi WNW 5.8 mph - N/A   Mostly Cloudy
5:50 PM 87 °F - 76 °F 62% 29.94 in 19 mi NW 4.5 mph - - Rain Rain
6:45 PM 84.2 °F 90.9 °F 73.4 °F 70% 29.95 in 13.0 mi WSW 4.6 mph - N/A   Mostly Cloudy
7:43 PM 84.2 °F 92.3 °F 75.2 °F 74% 29.96 in 13.0 mi WSW 4.6 mph - N/A   Mostly Cloudy
8:40 PM 82.4 °F 89.5 °F 75.2 °F 79% 30.02 in 10.0 mi South 3.5 mph - N/A   Mostly Cloudy
8:50 PM 84 °F - 76 °F 72% 29.96 in 2 mi SW 4.5 mph - -   Mostly Cloudy
9:42 PM 82.4 °F 88.2 °F 73.4 °F 74% 29.99 in 10.0 mi Calm Calm - N/A   Scattered Clouds
10:40 PM 80.6 °F 85.4 °F 73.4 °F 79% 30.00 in 10.0 mi Calm Calm - N/A   Scattered Clouds
11:50 PM 82 °F - 76 °F 76% 30.00 in 2 mi Calm Calm - -   Partly Cloudy